Regional Weather Roundup
Issued by NWS Upton, NY

Current Version | Previous Version | Graphics & Text | Print | Product List | Glossary Off
Versions: 1 2 3 4 5 6 7 8 9 10 11 12 13 14 15 16 17 18 19 20 21 22 23 24 25 26 27 28 29 30 31 32 33 34 35 36 37 38 39 40 41 42 43 44 45 46 47 48 49 50

000
ASUS41 KOKX 240007
RWROKX

REGIONAL WEATHER ROUNDUP
NATIONAL WEATHER SERVICE NEW YORK NY
800 PM EDT THU MAR 23 2017

NOTE: "FAIR" INDICATES FEW OR NO CLOUDS BELOW 12,000 FEET WITH NO
SIGNIFICANT WEATHER AND/OR OBSTRUCTIONS TO VISIBILITY.

NYZ071-072-176-178-NJZ106-104-240100-
NEW YORK CITY METRO AREA

CITY           SKY/WX    TMP DP  RH WIND       PRES   REMARKS
Central Park   CLEAR     40  -2  17 VRB3      30.53S
Wall St Helipt CLEAR     43   7  22 VRB6      30.53R
LaGuardia APRT PTCLDY    43   2  18 W9        30.51R
Kennedy INTL   PTCLDY    36  23  59 S16       30.53R WCI  26
Breezy Point     N/A     36 N/A N/A S17         N/A  WCI  25
Newark/Liberty PTCLDY    42  -3  15 W7        30.51S
Teterboro      CLEAR     41   3  20 NW13      30.51R
$$

NYZ177-179-078>081-240100-
LONG ISLAND NEW YORK

CITY           SKY/WX    TMP DP  RH WIND       PRES   REMARKS
Jones Beach      N/A     36 N/A N/A SW9G15      N/A  WCI  29
Matinecock PT    N/A     41 N/A N/A NW3         N/A
Farmingdale    CLEAR     38   2  22 CALM      30.52R
MacArthur/ISP  PTCLDY    37   2  22 SW3       30.52R
Shirley        CLEAR     30   3  31 CALM      30.53R
Westhampton    CLEAR     24   1  36 CALM      30.53R
East Hampton     N/A     28   5  38 CALM      30.52R
Montauk          N/A     37   6  27 NW9       30.52R WCI  30
$$

NYZ052-065-067-240100-
HUDSON VALLEY

CITY           SKY/WX    TMP DP  RH WIND       PRES   REMARKS
White Plains   CLEAR     35   1  23 W3        30.49R
Newburgh       CLEAR     36   7  30 W7        30.50R WCI  30
Montgomery     CLEAR     33  10  38 W5        30.48R WCI  29
Poughkeepsie   CLEAR     32   8  36 CALM      30.49R
Albany         PTCLDY    32   7  35 W8        30.50R WCI  25
$$

NJZ001-105-106-008-010-013-015-019>022-104-240100-
NEW JERSEY

CITY           SKY/WX    TMP DP  RH WIND       PRES   REMARKS
Newark/Liberty PTCLDY    42  -3  15 W7        30.51S
Teterboro      CLEAR     41   3  20 NW13      30.51R
Caldwell       CLEAR     38   2  22 CALM      30.52R
Somerville     CLEAR     34   8  33 CALM      30.50R
Linden         FLURRIES  41   3  20 CALM      30.52S
Sussex         CLEAR     32  12  43 CALM      30.50R
Andover          N/A     31   9  39 CALM      30.49R
Trenton        CLEAR     38  10  31 CALM      30.52R
Millville      CLEAR     36  11  35 S3        30.54S
Atlantic City  CLEAR     40   7  25 W5        30.54S
Wrightstown    CLEAR     36   9  32 S3        30.50R
Toms River     CLEAR     29  14  53 CALM      30.54R
Belmar         CLEAR     35  20  54 SE7       30.54R WCI  29
$$

PAZ047>061-062-071-240100-
EASTERN PENNSYLVANIA

CITY           SKY/WX    TMP DP  RH WIND       PRES   REMARKS
Philadelphia   PTCLDY    43   7  22 W7        30.53S
Allentown      CLEAR     40   1  19 CALM      30.50R
Scranton       CLEAR     33  11  39 CALM      30.46S
$$

CTZ002-004>006-009-010-012-RIZ004-006-007-MAZ004-011-015-240100-
SOUTHERN NEW ENGLAND
 IN CT

CITY           SKY/WX    TMP DP  RH WIND       PRES   REMARKS
Bradley INTL   PTCLDY    33   0  24 W3        30.50R
Hartford       CLEAR     36   1  22 NW3       30.50R
Danbury        CLEAR     31  11  43 CALM      30.50R
Wtrbury/Oxford CLEAR     32   0  25 CALM      30.48S
Bridgeport     CLEAR     35   6  29 CALM      30.52R
Meriden        CLEAR     32  11  41 CALM      30.51R
New Haven      CLEAR     36   4  26 CALM      30.51S
Chester          N/A     32  -2  23 CALM      30.49R
Groton         CLEAR     33   4  29 SW3       30.51R
Wilimantic     CLEAR     34   5  29 CALM      30.50R

 IN RI

CITY           SKY/WX    TMP DP  RH WIND       PRES   REMARKS
Providence     CLEAR     34  -1  22 NW5       30.49R WCI  30
Block Island   CLEAR     35   4  27 NW8       30.51R WCI  29
Westerly       CLEAR     34   1  24 CALM      30.51R
 IN MA

CITY           SKY/WX    TMP DP  RH WIND       PRES   REMARKS
Boston         PTCLDY    36   0  21 NW13G22   30.47R WCI  27
Worcester      CLEAR     29  -2  26 CALM      30.44R
Westfield      CLEAR     32   4  30 W5        30.49R WCI  27
Provincetown   CLEAR     36   9  32 NW18      30.46  WCI  26
Nantucket      CLEAR     31   7  36 W6        30.47R WCI  25
$$

ANZ330-335-338-340-345-350-353-355-240100-
COASTAL MARINE OBSERVATIONS


STATION/POSITION TIME  SKY/WX   TEMP    WIND        PRES    VSBY  WAVE
                                AIR SEA DIR/SP/G                  HT/PER
                 (UTC)          (F)     (DEG/KT/KT) (MB)    (MI)  (FT/S)
NY HARB ENTRANCE 2350            37 41  190/ 16/ 17 1033.9          2/ 3
20 S FIRE ISLAND 2350            36 41  230/ 16/ 17 1033.8          2/ 3
GREAT SOUTH BAY  NOT AVBL
23 SSW MONTAUK P 2350            37 42              1033.7          3/ 4
15 E BARNEGAT LI 2330               43                N/A           2/ 3
HUDSON CANYON    2250            36 45  290/ 12/ 16 1034.6          3/ 5
KINGS POINT      2330            40 39              1033.0
EXECUTION ROCKS  NOT AVBL
CENTRAL LI SOUND 2315            38     310/ 10/ 12   N/A           1/ 4
EASTERN LI SOUND NOT AVBL
ROBBINS REEF     2330            41     300/  6/  8 1033.5
$$


>>>>>>>>>>>>>>>>>>>>>>>>>>>> KEY <<<<<<<<<<<<<<<<<<<<<<<<<<<
>                                                          <
>     SKY/WX - Sky Condition/Present Weather               <
>     TMP    - Temperature in Fahrenheit                   <
>     DP     - Dew Point in Fahrenheit                     <
>     RH     - Relative Humidity in Percent                <
>     WIND   - Direction (from) and Speed in MPH           <
>     PRES   - Mean Sea Level Pressure (inches of Hg)      <
>     WCI    - Wind Chill Index                            <
>     VSB    - VISIBILITY IN MILES                         <
>     HX     - HEAT INDEX                                  <
>     TC     - TEMPERATURE IN CELSIUS                      <
>     VRB    - VARIABLE WIND DIRECTION                     <
>                                                          <
>>>>>>>>>>>>>>>>>>>>>>>>>>>> KEY <<<<<<<<<<<<<<<<<<<<<<<<<<<



USA.gov is the U.S. government's official web portal to all federal, state and local government web resources and services.